Disclaimer

Please do not use the information listed here in-flight or in-navigation, as they are not provided to us by the airports but are provided by volunteers, so they might be outdated.

Search


Regions


Airport information page

Radio informations:
RDO - 122.7 MHz
MIHO APP - 120.1 MHz

Airport informations:
Latitude: 35° 24' 49.00" N
Longitude: 132° 53' 24.00" E
Elevation: 15 feet - 5 meters
Operating hours: Remarks
Operating agency: Civil government, landing fees and diplomatic clearance may be required
Timezone: UTC+9
Fuel: Jet A, without icing inhibitor.

100/130 octane gasoline, leaded, MIL-L-5572F (GREEN)

80/87 octane gasoline, leaded, MIL-L-5572F (RED)

Runway information:
07/25 - 6562 x 148 feet< - >2000 x 45 meters

Recent METARs:
RJOC 171100Z 29011KT 9999 VCSH FEW030 SCT040 BKN045 07/M02 Q1018
RJOC 171100Z 29011KT 9999 VCSH FEW030 SCT040 BKN045 07/M02 Q1018
RJOC 171100Z 29011KT 9999 VCSH FEW030 SCT040 BKN045 07/M02 Q1018

Airport on the map: